Regional Weather Roundup
Issued by NWS

Home | Current Version | Previous Version | Text Only | Print | Product List | Glossary On
Versions: 1 2 3 4 5 6 7 8 9 10 11 12 13 14 15 16 17 18 19 20 21 22 23 24 25 26 27 28 29 30 31 32 33 34 35 36 37 38 39 40 41 42 43 44 45 46 47 48 49
000
ASUS45 KBOU 260307
RWRCO

WEATHER ROUNDUP FOR COLORADO
NATIONAL WEATHER SERVICE DENVER/BOULDER CO
800 PM MST WED FEB 25 2015

NOTE: "FAIR" INDICATES FEW OR NO CLOUDS BELOW 12000 FEET WITH NO
SIGNIFICANT WEATHER AND/OR OBSTRUCTIONS TO VISIBILITY.

COZ001>005-013-030-031-260400-
...NORTHWEST COLORADO...

CITY           SKY/WX    TMP DP  RH WIND       PRES   REMARKS
CRAIG          CLOUDY    27  16  63 CALM      30.05R
HAYDEN         CLOUDY    27  19  74 S7        30.03R WCI  19
MEEKER         FAIR      29  19  66 N6        30.04R WCI  23
MOUNT WERNER   NOT AVBL
STEAMBOAT SPGS MOCLDY    24  11  58 W10       30.00R WCI  13
WALDEN         CLOUDY    18  12  79 N7        30.00S WCI   8
$$

COZ006>008-011-260400-
...WEST CENTRAL VALLEYS...

CITY           SKY/WX    TMP DP  RH WIND       PRES   REMARKS
GRAND JUNCTION CLOUDY    39  29  67 N7        30.00R
MONTROSE       CLOUDY    33  28  81 N7        30.02R WCI  27
EAGLE          FLURRIES  30  28  93 CALM      30.00R
RIFLE          CLOUDY    36  27  69 CALM      30.00R
DELTA          CLOUDY    37  32  84 SE7       30.00S
NUCLA          FAIR      34  30  86 CALM      30.03R
$$

COZ017>023-064>068-260400-
...SOUTHWEST COLORADO...

CITY           SKY/WX    TMP DP  RH WIND       PRES   REMARKS
DURANGO        FAIR      30  23  75 CALM      29.95R
CORTEZ         MOCLDY    32  26  78 SW5       29.99R WCI  27
PAGOSA SPRINGS FAIR      25  24  99 CALM      29.97R
TELLURIDE      LGT SNOW  25  23  91 W9        30.00S WCI  16
WOLF CREEK PAS FAIR      12   3  67 N7        29.98S WCI   2
$$

COZ009-010-012-014-032>034-037-058>063-260400-
...CENTRAL COLORADO...

CITY           SKY/WX    TMP DP  RH WIND       PRES   REMARKS
ASPEN          CLOUDY    27  21  78 CALM      29.95S
BUENA VISTA    FAIR      28  17  64 CALM      29.93R
COPPER MTN     CLOUDY    16  10  79 W20G26    29.89S WCI  -1
BERTHOUD PASS  HVY SNOW   1  -4  78 MISG      29.90R VSB<1/4
COTTONWOOD PAS CLOUDY    27  12  54 N5        29.91S WCI  21
GUNNISON       MOCLDY    27  21  80 SW6       29.98S WCI  20
KREMMLING      LGT SNOW  23  18  80 N3        30.02R
LEADVILLE      LGT SNOW  17  15  92 NW3       29.90S VSB 1
MONARCH PASS   CLOUDY    14  12  92 W21       30.00S WCI  -4
SALIDA         MOCLDY    31  28  88 SE9       30.00S WCI  23
SUNLIGHT       CLOUDY   N/A N/A N/A NW7         N/A
WILKERSON PASS LGT SNOW  10   5  79 E13G18    29.93R VSB 3/4 WCI  -5
$$

COZ069>075-260400-
...SAN LUIS VALLEY/SANGRE DE CRISTO MOUNTAINS...

CITY           SKY/WX    TMP DP  RH WIND       PRES   REMARKS
ALAMOSA        FAIR      19  16  88 MISG      29.94R
LA VETA PASS   LGT SNOW  18  16  93 MISG      29.94S VSB 3/4
SAGUACHE       FAIR      30  21  69 NW13      29.93S WCI  20
$$

COZ035-036-038>040-260400-
...NORTHERN COLORADO FRONT RANGE...

CITY           SKY/WX    TMP DP  RH WIND       PRES   REMARKS
DENVER INTL AP CLOUDY    26  24  92 CALM      30.06S
DMNS CITY PARK   N/A     26  25  98 N3        30.08R
AURORA         LGT SNOW  25  25  99 NE3       30.07R FOG
FRONT RANGE AP NOT AVBL
ERIE MUNI ARPT FLURRIES  28  28  98 CALM      30.08S
BOULDER MUN AP LGT SNOW  28  28 100 CALM      30.07S
CENTENNIAL     LGT SNOW  25  24  96 NE9G18    30.06R VSB 3/4 WCI  15
BROOMFIELD     LGT SNOW  27  27 100 NE6       30.07R VSB 1   WCI  20
FORT COLLINS   FAIR      28  25  86 N14       30.10R WCI  17
LONGMONT       CLOUDY    30  28  92 SW5       30.10R WCI  25
$$

COZ041-046-047-076>085-087-088-260400-
...PIKES PEAK/PALMER DIVIDE AND SOUTHERN FOOTHILLS...

CITY           SKY/WX    TMP DP  RH WIND       PRES   REMARKS
COLO. SPRINGS  FLURRIES  26  19  74 N13       30.04R WCI  15
A. F. ACADEMY  LGT SNOW  25  21  86 NW7       30.02R FOG     WCI  17
ELLICOTT       NOT AVBL
FALCON         LGT SNOW  23  20  89 N13G18    30.02R WCI  11
FORT CARSON    CLOUDY    28  21  77 N14G21    30.02R WCI  16
LIMON          CLOUDY    24  22  91 N9        30.04R WCI  14
MONUMENT HILL  LGT SNOW  21  19  93 N16       30.01R WCI   7
TRINIDAD       LGT SNOW  31  29  92 N10       30.00R FOG     WCI  22
$$

COZ042>045-048>051-090-091-260400-
...NORTHEAST COLORADO...

CITY           SKY/WX    TMP DP  RH WIND       PRES   REMARKS
GREELEY ARPT   MOCLDY    32  19  59 N21G26    30.07R WCI  20
AKRON          CLOUDY    26  23  88 E5        30.05R WCI  20
BURLINGTON     MOCLDY    28  21  75 NE15      30.05R WCI  16
WRAY           MOCLDY    28  20  71 NE12      30.11R WCI  18
STERLING       FLURRIES  30  23  74 NE8       30.08R WCI  23
HOLYOKE        NOT AVBL
FORT MORGAN    FLURRIES  31  23  72 N13G21    30.08R WCI  21
$$

COZ086-089-092>099-260400-
...SOUTHEAST COLORADO...

CITY           SKY/WX    TMP DP  RH WIND       PRES   REMARKS
PUEBLO         LGT SNOW  30  29  96 NE13      30.06R FOG     WCI  20
LA JUNTA       LGT SNOW  33  31  92 NE13      30.04R FOG     WCI  24
LAMAR          CLOUDY    34  30  85 NE13G22   30.02R WCI  25
SPRINGFIELD      N/A     33  29  85 NE20G28   29.98R WCI  21
$$


USA.gov is the U.S. government's official web portal to all federal, state and local government web resources and services.